Location: Newark
(15.5800°N, 32.5200°E)
Time: 23:12:22
(UTC+00:00)

N. Korean satellite - Visible Passes

Search period start: 25 September 2020 00:00
Search period end: 05 October 2020 00:00
Orbit: 455 x 503 km, 97.2° (Epoch: 25 September)

Date Brightness Start Highest point End Pass type
(mag) Time Alt. Az. Time Alt. Az. Time Alt. Az.
25 Sep 9.9 02:22:08 10° ENE 02:24:01 14° E 02:25:52 10° SE visible
27 Sep 6.9 03:01:47 10° NNE 03:05:18 67° E 03:08:46 10° S visible
28 Sep 9.1 02:36:25 10° NE 02:39:18 23° E 02:42:08 10° SSE visible
30 Sep 6.5 03:17:01 10° N 03:20:30 63° WNW 03:23:55 10° SSW visible
01 Oct 7.9 02:51:10 10° NNE 02:54:31 42° E 02:57:48 10° S visible
02 Oct 9.8 02:26:15 10° ENE 02:28:28 16° E 02:30:39 10° SE visible
04 Oct 6.6 03:06:12 10° NNE 03:09:41 82° E 03:13:07 10° S visible
